This demonstration page uses our WeatherBlox Daily Observations layout. Learn more.

Left ArrowRight Arrow

39.01783, -85.05884

Hourly Observations for November 20, 2021

Temp ( °F °C ) Dew Point ( °F °C ) Humidity (%) Winds ( mph kmh ) Pressure ( in mb ) Visibility ( mi km ) Precip ( " mm )
12:52 am 00:52 Cloudy 34 1.1 22 -5.6 61 61 SSE 10 17 30.39 1029 10 16 N/A
1:52 am 01:52 Cloudy 34 1.1 22 -5.6 61 61 SE 13 20 30.36 1028 10 16 N/A
2:52 am 02:52 Mostly Cloudy 32 undefined 21 -6.1 64 64 SE 9 15 30.36 1028 10 16 N/A
3:52 am 03:52 Mostly Cloudy 33 0.6 22 -5.6 64 64 E 5 7 30.37 1029 10 16 N/A
4:52 am 04:52 Mostly Cloudy 31 -0.6 22 -5.6 69 69 SSE 5 7 30.37 1029 10 16 N/A
5:52 am 05:52 Mostly Cloudy 32 undefined 22 -5.6 66 66 SSE 9 15 30.36 1028 10 16 N/A
6:52 am 06:52 Mostly Cloudy 33 0.6 22 -5.6 64 64 SSE 13 20 30.32 1027 10 16 N/A
7:52 am 07:52 Cloudy 31 -0.6 23 -5 72 72 S 6 9 30.35 1028 10 16 N/A
8:52 am 08:52 Mostly Cloudy 34 1.1 24 -4.4 67 67 SSE 9 15 30.34 1027 10 16 N/A
9:52 am 09:52 Mostly Cloudy 38 3.3 26 -3.3 62 62 S 13 20 30.33 1027 10 16 N/A
10:52 am 10:52 Mostly Cloudy 42 5.6 26 -3.3 53 53 SSW 9 15 30.33 1027 10 16 N/A
11:52 am 11:52 Cloudy 45 7.2 27 -2.8 49 49 SSW 15 24 30.30 1026 10 16 N/A
12:52 pm 12:52 Mostly Cloudy 49 9.4 28 -2.2 44 44 SW 16 26 30.27 1025 10 16 N/A
1:52 pm 13:52 Cloudy 51 10.6 27 -2.8 39 39 WSW 13 20 30.24 1024 10 16 N/A
2:52 pm 14:52 Cloudy 51 10.6 27 -2.8 39 39 SSW 10 17 30.22 1023 10 16 N/A
3:52 pm 15:52 Mostly Cloudy 50 10 28 -2.2 43 43 SSW 8 13 30.22 1024 10 16 N/A
4:52 pm 16:52 Cloudy 50 10 31 -0.6 48 48 S 5 7 30.23 1024 10 16 N/A
5:52 pm 17:52 Cloudy 48 8.9 32 undefined 54 54 S 6 9 30.23 1024 10 16 N/A
6:52 pm 18:52 Cloudy 48 8.9 29 -1.7 48 48 S 5 7 30.24 1024 10 16 N/A
7:52 pm 19:52 Cloudy 45 7.2 28 -2.2 52 52 S 5 7 30.24 1024 10 16 N/A
8:52 pm 20:52 Cloudy 44 6.7 28 -2.2 53 53 N N/A 30.24 1024 10 16 N/A
9:52 pm 21:52 Cloudy 43 6.1 28 -2.2 56 56 S 5 7 30.23 1024 10 16 N/A
10:52 pm 22:52 Mostly Cloudy 44 6.7 28 -2.2 53 53 S 3 6 30.23 1024 10 16 N/A
11:52 pm 23:52 Partly Cloudy 41 5 28 -2.2 60 60 S 3 6 30.23 1024 10 16 N/A

Powered by AerisWeather